[[{"header":{"parameterUnit":"m.s-1","parameterCategory":1,"la1":30.2991,"la2":30.254,"lo1":-89.0895,"lo2":-89.0444,"dy":0.0017,"dx":0.0017,"nx":28,"ny":28,"refTime":"2025-01-04T09:00:00:Z","depth":0,"parameterNumber":2,"parameterNumberName":"U-component_of_WINDS"},"data":[0,0,0,0,0,0,0,0,0,0,0,0,0,0,0,0,0,0,0,0,0,0,0,0,0,0,0,0,0,0,0,0,0,0,0,0,0,0,0,0,0,0,0,0,0,0,0,0,0,0,0,0,0,0,0,0,0,0,-0.091,-0.0911,0,-0.0978,-0.0979,-0.098,-0.1016,-0.1016,-0.1016,-0.1016,-0.1085,-0.1087,-0.1089,0,0,0,0,0,0,0,0,0,0,0,0,0,-0.0808,-0.081,-0.091,-0.0911,-0.0912,-0.0978,-0.0979,-0.098,-0.1016,-0.1016,-0.1016,-0.1016,-0.1085,-0.1087,-0.1089,0,0,0,0,0,0,0,0,0,0,0,0,0,-0.0862,-0.081,-0.091,-0.0938,-0.0941,-0.0978,-0.0979,-0.098,-0.1016,-0.1016,-0.1016,-0.1016,-0.1084,-0.1087,-0.1089,-0.1104,0,0,-0.1098,-0.1099,0,0,0,0,0,0,0,0,-0.0859,-0.0866,-0.0933,-0.0936,-0.094,-0.0989,-0.0969,-0.1022,-0.1016,-0.0988,-0.1016,-0.1016,-0.1053,-0.1058,-0.1071,-0.1107,-0.111,-0.1098,-0.1099,-0.1101,-0.1101,0,0,0,0,0,0,0,-0.0855,-0.0863,-0.0937,-0.0934,-0.0938,-0.0946,-0.0954,-0.0979,-0.1019,-0.099,-0.0993,-0.1,-0.1055,-0.1068,-0.1073,-0.1111,-0.1098,-0.11,-0.1102,-0.1103,-0.116,-0.116,0,0,0,0,0,0,-0.0847,-0.0859,-0.0935,-0.0939,-0.0899,-0.0948,-0.0956,-0.0973,-0.1019,-0.1026,-0.1,-0.1002,-0.1064,-0.107,-0.1075,-0.1094,-0.1101,-0.1103,-0.1105,-0.116,-0.116,-0.1159,0,0,0,0,0,0,-0.0845,-0.0853,-0.0932,-0.09,-0.0911,-0.0949,-0.0968,-0.0974,-0.0988,-0.1027,-0.1034,-0.1007,-0.1064,-0.1072,-0.1096,-0.1097,-0.1104,-0.1107,-0.116,-0.116,-0.116,-0.1132,0,0,0,0,0,0,-0.0842,-0.0852,-0.0859,-0.09,-0.0912,-0.0952,-0.0968,-0.0975,-0.0992,-0.0995,-0.1034,-0.1041,-0.1065,-0.1092,-0.1099,-0.1101,-0.1109,-0.116,-0.116,-0.116,-0.1133,-0.1131,-0.1129,0,0,0,0,0,-0.0838,-0.0849,-0.0859,-0.0868,-0.0922,-0.0952,-0.0959,-0.0987,-0.0992,-0.0999,-0.1023,-0.104,-0.1095,-0.1094,-0.1102,-0.1105,-0.116,-0.116,-0.116,-0.1134,-0.1131,-0.1129,0,0,0,0,0,0,-0.0808,-0.0855,-0.0867,-0.0892,-0.0918,-0.0959,-0.0968,-0.0983,-0.1008,-0.101,-0.1042,-0.1051,-0.1071,-0.1091,-0.1088,-0.112,-0.1129,-0.1131,-0.1107,-0.1105,-0.1103,-0.1098,-0.1111,0,0,0,0,0,-0.0804,-0.0826,-0.0866,-0.0884,-0.0896,-0.0929,-0.0944,-0.0962,-0.099,-0.1001,-0.1028,-0.1054,-0.1077,-0.1092,-0.1116,-0.1135,-0.1144,-0.1141,-0.1139,-0.1137,-0.1139,-0.1149,-0.1147,-0.1159,-0.1159,-0.1159,0,0,-0.0797,-0.0825,-0.0837,-0.0878,-0.0901,-0.0921,-0.0939,-0.096,-0.0976,-0.1005,-0.1029,-0.1049,-0.108,-0.1102,-0.1112,-0.1118,-0.1137,-0.1137,-0.1135,-0.1138,-0.1148,-0.1147,-0.1146,-0.1159,-0.1159,-0.1159,0,0,-0.0795,-0.0818,-0.0835,-0.0857,-0.089,-0.0911,-0.0915,-0.0953,-0.0967,-0.0992,-0.1013,-0.1031,-0.1071,-0.1092,-0.1108,-0.1109,-0.1125,-0.1116,-0.1106,-0.1115,-0.1114,-0.1114,-0.1114,-0.1113,-0.1116,-0.1116,-0.1116,0,-0.0781,-0.0814,-0.0842,-0.0862,-0.0879,-0.0905,-0.0921,-0.094,-0.0979,-0.099,-0.0995,-0.1044,-0.1067,-0.1093,-0.1093,-0.1105,-0.1109,-0.1112,-0.1112,-0.1112,-0.1112,-0.1112,-0.1112,-0.1115,-0.1115,-0.1115,-0.1115,0,-0.0796,-0.0818,-0.0827,-0.0864,-0.0881,-0.0899,-0.0928,-0.0943,-0.0958,-0.0979,-0.1002,-0.103,-0.1059,-0.1066,-0.1082,-0.1093,-0.1096,-0.1106,-0.1117,-0.1109,-0.111,-0.111,-0.1113,-0.1113,-0.1114,-0.1114,0,0,-0.0779,-0.0828,-0.0831,-0.0847,-0.0884,-0.0901,-0.0919,-0.0947,-0.0958,-0.0983,-0.0998,-0.1029,-0.1038,-0.1056,-0.1074,-0.1082,-0.108,-0.1092,-0.1093,-0.1088,-0.1093,-0.1085,-0.1085,-0.109,-0.109,-0.109,-0.109,0,-0.0782,-0.0817,-0.084,-0.0865,-0.0885,-0.0908,-0.0923,-0.0947,-0.0965,-0.0984,-0.1004,-0.1026,-0.1037,-0.1047,-0.1056,-0.1078,-0.1081,-0.1079,-0.1104,-0.1105,-0.1096,-0.1085,-0.1078,-0.1076,-0.109,-0.109,-0.1091,0,-0.0791,-0.0814,-0.084,-0.0873,-0.0882,-0.0895,-0.0921,-0.0939,-0.0965,-0.0978,-0.0996,-0.1014,-0.1032,-0.1039,-0.1064,-0.1062,-0.1073,-0.1085,-0.1086,-0.109,-0.1098,-0.1089,-0.1076,-0.1076,-0.1091,-0.1091,-0.1091,0,-0.0775,-0.0813,-0.0833,-0.0846,-0.0884,-0.0893,-0.0909,-0.0935,-0.095,-0.0972,-0.0981,-0.1005,-0.1018,-0.1036,-0.1059,-0.1062,-0.1081,-0.1091,-0.1092,-0.1091,-0.1096,-0.1096,-0.1086,-0.1102,-0.1102,-0.1102,-0.1102,0,-0.0776,-0.0791,-0.0827,-0.0839,-0.0856,-0.0882,-0.0898,-0.0916,-0.0938,-0.0953,-0.0974,-0.0988,-0.1018,-0.1035,-0.1053,-0.107,-0.1076,-0.1087,-0.1091,-0.1085,-0.1084,-0.1094,-0.1095,-0.1102,-0.1102,-0.1102,-0.1102,0,-0.0763,-0.0787,-0.0811,-0.0844,-0.0852,-0.0863,-0.0891,-0.0904,-0.0922,-0.0941,-0.0947,-0.0976,-0.0997,-0.1021,-0.1051,-0.1062,-0.1078,-0.1085,-0.1069,-0.1072,-0.1072,-0.1072,-0.1068,-0.1069,-0.1085,-0.1085,-0.1084,0,-0.0763,-0.0774,-0.0808,-0.082,-0.0835,-0.0854,-0.0868,-0.0893,-0.0907,-0.0935,-0.0944,-0.0966,-0.0985,-0.1017,-0.104,-0.1062,-0.107,-0.1067,-0.1073,-0.1066,-0.1069,-0.1069,-0.1069,-0.1066,-0.1065,-0.1065,-0.1065,0,-0.0759,-0.0769,-0.0789,-0.0812,-0.0828,-0.0848,-0.0868,-0.0876,-0.0905,-0.0919,-0.094,-0.0955,-0.0983,-0.1004,-0.1028,-0.1044,-0.1059,-0.1062,-0.1064,-0.1058,-0.1048,-0.1053,-0.1065,-0.1063,-0.1063,-0.1063,-0.1063,-0.1063,-0.0752,-0.0763,-0.0788,-0.0808,-0.0826,-0.0843,-0.0856,-0.0875,-0.0893,-0.0918,-0.0931,-0.0952,-0.0975,-0.1008,-0.1023,-0.1039,-0.1044,-0.1046,-0.1047,-0.1047,-0.1045,-0.1045,-0.1043,-0.1043,-0.1043,-0.1043,-0.1043,0,-0.0749,-0.0766,-0.0784,-0.0811,-0.0827,-0.0838,-0.086,-0.0872,-0.089,-0.091,-0.0928,-0.0951,-0.0971,-0.0994,-0.1015,-0.1023,-0.103,-0.1028,-0.1028,-0.1031,-0.1039,-0.1036,-0.1022,-0.1022,-0.1022,-0.1022,-0.1022,-0.1022,-0.075,-0.0769,-0.0782,-0.0808,-0.0824,-0.0844,-0.0856,-0.0871,-0.0887,-0.0912,-0.0929,-0.0943,-0.0964,-0.0987,-0.1005,-0.1011,-0.1018,-0.1014,-0.1022,-0.1029,-0.1031,-0.1033,-0.103,-0.1015,-0.1015,-0.1013,-0.1013,-0.1013]},{"header":{"parameterUnit":"m.s-1","parameterCategory":1,"la1":30.2991,"la2":30.254,"lo1":-89.0895,"lo2":-89.0444,"dy":0.0017,"dx":0.0017,"nx":28,"ny":28,"refTime":"2025-01-04T09:00:00:Z","depth":0,"parameterNumber":3,"parameterNumberName":"V-component_of_WINDS"},"data":[0,0,0,0,0,0,0,0,0,0,0,0,0,0,0,0,0,0,0,0,0,0,0,0,0,0,0,0,0,0,0,0,0,0,0,0,0,0,0,0,0,0,0,0,0,0,0,0,0,0,0,0,0,0,0,0,0,0,7.7377,7.7381,0,7.7756,7.776,7.7764,7.7853,7.785,7.7848,7.7845,7.8237,7.8249,7.8262,0,0,0,0,0,0,0,0,0,0,0,0,0,7.6734,7.6745,7.7376,7.7381,7.7386,7.7755,7.776,7.7766,7.7853,7.785,7.7847,7.7844,7.8232,7.8248,7.8263,0,0,0,0,0,0,0,0,0,0,0,0,0,7.7053,7.6749,7.7375,7.7474,7.7487,7.7754,7.7761,7.7767,7.7854,7.785,7.7846,7.7843,7.8227,7.8246,7.8265,7.8462,0,0,7.8324,7.8332,0,0,0,0,0,0,0,0,7.7035,7.7076,7.7455,7.7468,7.7482,7.7753,7.7677,7.8,7.7855,7.7715,7.7845,7.7841,7.8079,7.811,7.819,7.848,7.8497,7.8326,7.8337,7.8346,7.8351,0,0,0,0,0,0,0,7.7012,7.7061,7.7527,7.746,7.7477,7.7501,7.7542,7.7739,7.7914,7.7727,7.7734,7.7777,7.8086,7.8171,7.82,7.8503,7.8325,7.8342,7.8354,7.8362,7.898,7.8985,0,0,0,0,0,0,7.6973,7.7042,7.7514,7.7538,7.7244,7.7516,7.7562,7.767,7.7912,7.7945,7.778,7.778,7.814,7.8177,7.8214,7.8465,7.8345,7.8364,7.8375,7.8975,7.8981,7.8987,0,0,0,0,0,0,7.6958,7.7014,7.7499,7.7292,7.7356,7.7531,7.7652,7.768,7.7765,7.7953,7.7985,7.7835,7.8139,7.8187,7.8401,7.848,7.8372,7.839,7.897,7.8977,7.8984,7.8965,0,0,0,0,0,0,7.694,7.7008,7.7083,7.7293,7.7366,7.7678,7.7657,7.769,7.7798,7.7801,7.8013,7.8044,7.8139,7.8372,7.842,7.8504,7.8405,7.8963,7.8973,7.8982,7.896,7.8971,7.8981,0,0,0,0,0,7.6916,7.7062,7.7086,7.7143,7.7463,7.7682,7.7724,7.783,7.7804,7.7882,7.8004,7.8038,7.8462,7.8393,7.8448,7.8539,7.8959,7.897,7.8981,7.8955,7.8969,7.898,0,0,0,0,0,0,7.6857,7.7091,7.7121,7.7338,7.749,7.7696,7.7798,7.784,7.8003,7.7999,7.8124,7.8171,7.8379,7.848,7.8398,7.8746,7.871,7.8733,7.8672,7.8687,7.8697,7.8669,7.8421,0,0,0,0,0,7.6869,7.7025,7.7222,7.7396,7.747,7.7621,7.772,7.7789,7.7951,7.8015,7.8152,7.8309,7.8479,7.8588,7.8754,7.8974,7.9024,7.9065,7.9075,7.9083,7.9101,7.9231,7.9252,7.9023,7.9023,7.9022,0,0,7.6896,7.7043,7.7134,7.7388,7.7513,7.7675,7.7674,7.7844,7.7967,7.8041,7.8253,7.8359,7.8543,7.8762,7.8865,7.8853,7.9176,7.9097,7.9101,7.9117,7.9244,7.9266,7.9285,7.903,7.9029,7.9028,0,0,7.7028,7.7154,7.7314,7.744,7.763,7.7731,7.7769,7.7971,7.8044,7.8258,7.832,7.8467,7.8755,7.8886,7.8989,7.9175,7.9215,7.9226,7.9282,7.9406,7.9424,7.9441,7.9512,7.9535,7.9244,7.9244,7.9244,0,7.7038,7.7283,7.7391,7.7561,7.7672,7.7748,7.7913,7.8031,7.8265,7.8341,7.8324,7.8691,7.8819,7.9072,7.9118,7.9198,7.9249,7.9203,7.9413,7.9431,7.9448,7.9517,7.9543,7.9244,7.9244,7.9244,7.9244,0,7.7288,7.7457,7.7564,7.779,7.7913,7.8079,7.8216,7.8328,7.8386,7.8489,7.8709,7.8866,7.9068,7.9133,7.9191,7.9396,7.9383,7.9387,7.9355,7.9469,7.9536,7.9563,7.9245,7.9244,7.9244,7.9244,0,0,7.7392,7.7678,7.7716,7.7822,7.8039,7.8173,7.8344,7.8541,7.8637,7.8797,7.8946,7.919,7.9197,7.9315,7.9389,7.9498,7.9641,7.949,7.9497,7.9516,7.9882,7.988,7.9908,7.9667,7.9673,7.9677,7.9868,0,7.7554,7.7862,7.7967,7.8223,7.8383,7.8459,7.8609,7.876,7.8861,7.9014,7.9126,7.9299,7.9292,7.9365,7.9476,7.96,7.9717,7.9587,7.9811,7.9818,7.9766,7.9943,7.994,8.0113,7.9895,7.9899,7.9902,0,7.7783,7.7948,7.822,7.8422,7.8493,7.8626,7.8818,7.8961,7.9135,7.9202,7.9335,7.9402,7.9588,7.9543,7.9802,7.9712,7.981,7.9885,7.9895,7.9922,7.9869,7.9979,8.017,8.0197,7.9944,7.9941,7.9938,0,7.7838,7.8127,7.8329,7.8416,7.8655,7.8747,7.8851,7.9021,7.9135,7.9303,7.9379,7.9565,7.9669,7.9813,7.993,7.9886,8.0181,8.0145,8.0245,8.0242,8.0305,8.03,8.0519,8.0362,8.0362,8.0361,8.0361,0,7.8009,7.8174,7.8357,7.8481,7.867,7.879,7.8973,7.9082,7.9233,7.9382,7.9458,7.9597,7.9742,7.99,7.9993,8.0197,8.0241,8.0303,8.0326,8.0298,8.0291,8.0366,8.0359,8.0368,8.0367,8.0366,8.0364,0,7.8102,7.8231,7.8456,7.8665,7.8721,7.8851,7.9031,7.9156,7.9261,7.9449,7.95,7.9666,7.9857,7.9988,8.0232,8.0295,8.0517,8.0536,8.0458,8.047,8.0565,8.0555,8.0842,8.0888,8.0696,8.0698,8.0699,0,7.8204,7.8333,7.8556,7.8661,7.8766,7.8934,7.9051,7.9175,7.9294,7.9505,7.9606,7.9801,7.9965,8.0267,8.0411,8.06,8.0627,8.0714,8.0656,8.0625,8.0634,8.0626,8.0642,8.0724,8.0725,8.0726,8.0727,0,7.8373,7.8432,7.8597,7.8786,7.8924,7.9079,7.9234,7.9316,7.9468,7.9599,7.9795,7.9922,8.0173,8.0369,8.0572,8.0681,8.0732,8.0745,8.0779,8.0753,8.0704,8.0737,8.0487,8.0738,8.0737,8.0736,8.0736,8.0735,7.8478,7.8597,7.8774,7.8957,7.9088,7.9232,7.9362,7.9484,7.965,7.9864,7.9928,8.0133,8.0309,8.0587,8.07,8.0864,8.0857,8.0905,8.0918,8.0929,8.0931,8.0675,8.0901,8.0901,8.0901,8.0901,8.0901,0,7.8655,7.8773,7.894,7.9156,7.9301,7.9335,7.951,7.963,7.9809,7.9969,8.0129,8.0357,8.0548,8.0708,8.0906,8.1007,8.1036,8.1055,8.1051,8.1077,8.0924,8.0877,8.1029,8.1029,8.1029,8.1029,8.1029,8.1029,7.8764,7.897,7.905,7.9324,7.9442,7.9644,7.9742,7.9877,8.0006,8.0257,8.0416,8.0519,8.068,8.0891,8.1069,8.1112,8.1183,8.1198,8.1246,8.1101,8.1087,8.1073,8.1029,8.1212,8.1212,8.1386,8.1388,8.1389]}]]